Temperature
12 12 12 13 13 13 13 14 14 14 14 14 14 14 14 14 14 14 14 14 14 14 14 14 14 14 14 14 14 14 14 14 14 14 14 14 15 15 15 15 15 15 15
12 12 12 12 13 13 13 13 14 14 14 14 14 14 14 14 14 14 14 14 14 14 14 14 14 14 14 14 14 14 14 14 14 14 14 14 14 14 14 15 15 15 15
12 12 12 12 12 13 13 13 13 13 14 14 14 14 14 14 14 14 14 14 14 14 14 14 14 14 14 14 14 14 14 14 14 14 14 14 14 14 14 14 14 14 14
12 12 12 12 12 12 12 13 13 13 13 13 13 13 13 13 13 13 14 14 14 14 14 14 14 14 14 14 14 14 14 14 14 14 14 14 14 14 14 14 14 14 14
12 12 12 12 12 12 12 12 13 13 13 13 13 13 13 13 13 13 14 14 14 14 14 14 14 14 14 14 14 14 14 14 14 14 13 13 13 13 14 14 13 13 13
11 11 11 11 12 12 12 12 12 13 13 13 13 13 13 13 13 13 14 14 14 14 14 14 14 14 14 13 13 14 14 14 14 14 13 13 13 13 13 13 13 13 13
11 11 11 11 11 11 11 12 12 12 12 12 13 13 13 13 13 14 14 14 14 14 14 14 14 14 14 14 14 14 13 13 13 13 13 13 13 13 13 13 13 13 12
11 11 11 11 11 11 11 11 11 12 12 12 12 13 13 13 13 14 14 14 14 14 14 14 14 14 14 14 14 13 13 13 13 13 13 13 13 13 13 12 12 12 12
11 11 11 11 11 11 11 11 11 11 12 12 12 12 12 13 13 13 14 14 14 14 14 14 14 14 14 14 13 13 13 13 13 13 13 13 13 12 12 12 12 12 12
11 11 11 11 11 11 11 11 11 11 11 11 11 12 12 12 12 13 13 13 14 14 14 13 13 13 13 13 13 13 13 13 13 12 12 12 12 12 12 12 12 12 11
11 11 11 11 11 11 11 11 11 11 11 11 11 11 11 12 12 12 13 13 13 13 13 13 13 13 13 13 13 13 13 13 12 12 12 12 12 12 12 11 11 11 11
11 11 11 11 11 11 11 11 11 11 11 11 11 11 11 11 12 12 12 12 12 13 13 13 13 13 13 13 13 12 12 12 12 12 12 11 11 11 11 11 11 11 10
11 11 11 11 11 11 10 11 11 11 11 10 10 10 11 11 11 11 11 12 12 12 12 12 12 12 12 12 12 12 12 12 12 12 11 11 11 11 10 10 10 10 10
11 11 11 11 10 10 10 10 10 10 10 10 10 10 10 10 11 11 11 11 11 12 12 11 11 12 12 12 12 12 11 11 11 11 11 10 10 10 10 9 9 9 9
11 11 11 11 10 10 10 10 10 10 10 10 10 10 10 10 10 11 11 11 11 11 11 11 11 11 11 11 11 11 11 11 10 10 10 10 10 9 9 9 9 9 9
11 11 11 11 10 10 10 10 10 10 10 10 10 10 10 10 10 10 10 10 10 10 11 11 11 11 11 11 11 10 10 10 10 10 9 9 9 9 9 9 8 8 8
11 11 11 11 10 10 10 10 10 10 10 10 9 9 10 10 10 10 10 10 10 10 10 10 10 10 10 10 10 10 10 9 9 9 9 9 9 8 8 8 8 8 7
12 11 11 11 11 10 10 10 10 10 10 10 9 9 9 9 10 10 10 10 10 10 10 10 10 10 10 9 9 9 9 9 9 9 9 9 8 8 8 8 7 7 7
12 12 11 11 11 11 10 10 10 10 10 10 9 9 9 9 9 9 9 10 10 10 10 9 9 9 9 9 9 9 9 9 9 9 8 8 8 8 7 7 7 7 7
12 12 11 11 11 11 10 10 10 10 10 10 10 9 9 9 9 9 9 9 9 9 9 9 9 9 9 9 9 9 9 9 9 8 8 8 8 7 7 7 7 6 6
12 12 12 11 11 11 11 10 10 10 10 10 10 9 9 9 9 9 9 9 9 9 9 9 9 9 9 9 9 9 9 9 8 8 8 8 7 7 7 6 6 6 6
12 12 12 12 11 11 11 11 10 10 10 10 10 10 9 9 9 9 9 9 9 9 9 9 9 9 9 9 9 9 8 8 8 8 8 7 7 7 6 6 6 6 6
12 12 12 12 12 11 11 11 11 10 10 10 10 10 10 10 10 9 9 9 9 9 9 9 9 9 9 9 9 9 9 8 8 8 7 7 6 6 6 6 6 6 6
12 12 12 12 12 12 11 11 11 11 10 10 10 10 10 10 10 10 9 9 9 9 9 9 9 9 9 9 9 9 9 8 8 8 7 7 7 6 6 6 6 6 6
12 12 12 12 12 12 12 11 11 11 11 11 10 10 10 10 10 10 10 9 9 9 9 9 9 9 9 9 9 9 9 9 8 8 7 7 7 7 6 6 6 6 6
12 12 12 12 12 12 12 12 11 11 11 11 11 11 10 10 10 10 10 10 10 9 9 9 9 9 9 9 9 9 9 9 8 8 8 7 7 7 6 6 6 6 6
Wind_Speed
11 10 10 9 8 8 7 6 5 4 3 2 1 1 1 2 3 4 4 5 6 6 6 7 7 6 5 4 4 4 4 4 4 2 1 1 1 2 2 2 1 2 3
10 9 10 9 9 9 9 8 7 6 5 4 4 4 4 2 2 4 4 4 5 5 5 6 6 6 6 5 4 5 4 4 4 3 1 1 1 1 1 2 2 2 2
10 10 10 10 10 10 9 9 8 7 6 6 5 5 5 4 3 3 4 4 3 4 5 5 6 6 5 4 5 4 4 4 3 3 1 0 1 1 2 2 2 3 4
10 10 10 11 10 9 9 9 9 8 7 7 6 5 5 5 4 4 3 3 3 3 3 4 4 5 6 6 5 5 4 5 4 3 2 1 1 1 2 2 2 3 3
9 10 10 10 9 9 9 9 9 9 9 8 7 6 5 4 4 4 3 4 4 4 4 4 4 5 6 5 5 5 6 4 4 3 2 2 1 1 1 1 1 2 2
9 9 9 10 10 10 9 9 9 9 9 9 9 7 7 5 5 5 5 4 5 5 5 4 4 5 6 7 8 8 7 6 5 3 2 2 1 0 1 1 1 2 2
8 8 9 9 9 9 9 9 9 9 8 9 9 8 7 7 8 7 6 5 4 4 4 4 4 5 6 6 8 8 7 7 6 5 4 2 2 2 2 1 1 1 1
8 8 9 9 9 9 9 9 9 7 7 8 8 9 8 9 11 9 8 7 6 5 4 5 5 5 5 8 8 8 7 6 5 5 4 3 2 2 2 2 2 2 2
7 8 8 8 8 9 9 9 7 7 8 8 7 9 9 9 11 10 8 6 7 7 6 5 6 6 8 10 9 9 8 6 8 11 10 8 8 6 5 3 3 2 2
6 6 6 7 8 8 8 7 6 6 7 7 8 9 9 9 11 11 9 5 7 6 6 6 7 8 8 9 8 8 7 5 5 7 8 10 10 10 9 5 2 2 2
4 5 7 7 7 7 7 7 7 7 7 8 8 8 9 10 11 12 10 5 5 5 5 5 5 9 10 10 8 6 7 7 6 7 6 6 6 6 7 7 6 3 3
4 6 7 7 7 7 7 7 7 7 8 8 8 8 8 8 10 11 12 10 8 6 5 4 6 11 12 11 8 10 12 9 6 6 6 5 5 5 4 6 9 10 8
5 6 5 6 7 7 7 7 7 7 7 7 7 7 7 7 8 12 12 12 11 8 7 10 11 13 12 10 11 12 9 6 6 5 5 3 2 3 3 4 6 8 11
4 4 4 5 6 6 6 6 6 6 6 6 6 6 6 6 7 6 6 6 9 9 7 10 14 15 11 10 9 8 6 5 5 5 3 3 3 3 4 3 3 3 5
3 3 4 4 4 5 5 4 4 4 4 4 4 4 5 6 6 7 5 5 4 5 6 6 6 6 7 6 6 6 6 5 5 3 4 4 4 4 4 3 3 4 4
1 1 2 2 2 2 3 4 6 5 8 9 8 5 4 5 7 9 10 10 10 9 7 6 6 6 6 5 5 5 5 5 4 4 4 4 4 4 4 4 4 4 5
1 0 0 1 1 1 2 2 3 5 7 10 11 10 9 9 10 10 11 12 11 9 7 5 5 5 5 5 4 4 3 3 3 4 4 4 4 4 4 4 4 4 4
1 1 1 1 1 0 0 1 1 2 3 4 7 10 10 10 11 10 9 8 7 7 5 5 4 4 4 4 4 4 3 4 4 4 4 4 3 3 3 4 4 3 3
1 1 1 1 1 1 1 1 1 2 2 2 3 5 7 8 10 11 9 5 5 4 4 4 3 3 3 4 4 4 4 4 4 3 3 4 3 3 3 3 3 4 3
1 2 2 1 1 1 1 1 1 1 1 2 2 2 3 4 4 5 5 4 4 3 3 3 3 3 3 3 3 3 4 4 3 3 3 3 3 3 3 3 3 3 3
1 2 1 2 2 2 2 2 2 2 1 0 1 1 1 2 2 2 2 2 2 2 2 2 2 2 2 2 3 3 3 3 3 2 2 2 2 3 3 3 3 3 3
2 2 2 2 2 2 2 3 3 3 3 2 1 1 2 2 1 1 1 1 1 1 1 2 2 1 1 2 2 2 2 2 2 2 2 2 2 3 3 3 3 3 3
2 2 2 2 3 3 3 3 3 3 3 3 3 2 2 2 2 2 2 2 1 2 2 3 2 2 2 2 2 3 2 2 1 1 2 2 2 3 3 3 3 3 3
3 3 3 3 3 3 4 4 4 4 4 4 4 4 4 4 4 4 4 3 3 3 3 4 4 3 4 3 2 2 2 2 2 2 3 3 3 3 3 3 3 3 3
3 3 4 4 4 4 4 5 5 5 5 5 5 5 5 5 5 5 4 4 4 4 5 6 5 5 5 5 4 3 2 2 2 3 4 4 4 4 4 3 3 3 3
4 4 4 4 4 5 5 5 5 5 6 6 6 6 6 6 6 5 5 5 5 5 6 7 8 8 7 6 6 5 4 3 3 4 5 5 4 4 4 3 4 3 4
Wind_Direction
353 354 359 358 1 5 11 10 8 17 29 44 63 78 139 164 164 168 171 172 179 179 178 178 180 170 174 174 169 174 175 168 185 207 245 325 23 23 18 21 345 282 275
354 357 0 2 7 13 13 10 11 20 30 43 54 59 57 80 126 148 158 168 176 179 179 172 172 172 171 172 172 176 174 173 168 182 195 11 21 10 8 11 4 355 315
356 3 7 8 12 13 12 13 14 20 28 39 50 56 55 57 75 106 123 126 142 161 169 168 165 158 160 162 162 161 157 153 145 151 152 83 33 23 29 19 16 7 356
359 5 9 6 7 8 12 17 20 23 29 34 37 44 51 53 58 66 93 106 117 129 138 146 147 153 158 154 152 151 145 139 135 130 123 88 60 26 55 37 18 11 1
1 6 5 2 6 12 16 17 23 29 32 32 36 35 39 51 61 70 80 96 105 106 101 109 124 140 149 147 145 145 142 132 126 119 111 89 64 45 41 28 19 352 8
4 5 3 5 10 13 14 19 26 28 29 34 33 31 34 36 52 62 73 83 91 101 101 96 107 125 136 138 138 141 140 138 139 129 120 122 134 127 82 61 48 37 6
6 5 5 6 11 12 18 25 25 24 28 32 29 29 28 27 49 66 75 88 88 95 102 105 104 107 109 110 108 106 105 115 129 136 134 149 162 181 149 102 87 74 37
6 4 4 5 10 13 22 24 22 24 27 28 27 24 26 30 44 63 80 83 82 79 83 96 100 97 108 115 107 96 86 78 91 99 117 125 134 148 147 136 134 100 62
5 3 3 8 16 19 21 18 19 27 31 30 28 27 29 27 34 54 72 76 74 65 62 76 94 95 115 119 112 106 92 75 76 86 87 81 77 84 95 90 82 76 56
358 359 6 15 24 23 20 19 20 30 32 34 35 29 30 29 32 47 63 75 76 70 61 62 77 93 105 113 115 116 111 96 88 78 65 59 58 60 61 64 91 91 89
3 18 24 21 27 28 27 24 21 25 32 34 34 30 31 28 30 40 53 65 78 80 72 61 63 86 92 96 101 105 117 115 98 91 78 62 53 49 46 48 54 79 93
31 35 32 27 30 32 33 29 25 25 32 28 27 27 25 22 27 39 53 63 75 81 77 65 71 81 82 85 88 98 104 100 94 86 76 62 52 45 42 50 60 64 66
47 40 34 35 35 33 35 32 29 27 32 29 27 26 18 16 23 39 54 65 69 76 77 80 78 77 74 74 79 88 89 90 92 88 80 60 38 33 47 54 53 63 59
58 43 37 41 35 31 32 33 34 27 26 27 26 21 18 21 22 24 35 55 64 73 75 76 74 70 68 67 68 66 66 80 92 90 80 51 39 50 49 45 50 45 56
61 51 45 45 44 34 32 28 27 20 17 20 14 10 19 21 14 34 57 60 68 83 80 65 59 59 63 60 59 58 56 62 67 60 70 67 58 58 44 34 48 57 70
70 44 41 42 43 39 32 25 26 32 33 39 40 42 34 39 41 53 63 70 79 86 79 74 70 66 67 66 66 59 51 53 55 66 70 69 70 70 62 49 56 70 75
180 192 102 69 55 41 38 40 21 11 29 37 36 44 52 50 55 61 68 69 67 75 78 77 74 70 67 65 63 62 54 45 56 70 75 71 74 72 72 67 65 67 65
171 185 165 178 161 127 77 62 53 41 19 3 16 37 51 56 56 56 63 69 58 54 67 74 72 69 68 68 64 63 63 60 60 65 67 67 70 76 76 72 69 72 67
179 205 196 194 179 160 130 104 81 63 47 18 12 21 33 48 51 48 52 65 75 66 62 64 65 69 70 71 70 68 69 68 66 67 65 65 70 79 80 77 78 75 70
248 244 203 176 149 136 133 135 129 106 46 24 18 2 5 38 43 34 42 58 73 73 71 72 66 72 77 79 78 77 74 70 67 65 63 65 70 81 92 90 88 84 73
254 267 220 167 173 169 171 183 183 173 185 274 318 332 106 96 85 65 57 59 76 90 94 91 82 77 80 88 91 88 88 79 70 71 74 73 82 84 88 93 93 93 97
234 236 221 209 200 191 191 193 189 194 206 216 246 322 120 115 130 128 113 95 108 119 134 128 117 104 112 118 123 119 113 103 86 81 80 79 88 97 101 98 96 94 102
232 235 234 225 212 209 201 197 197 203 213 217 213 210 196 194 199 200 200 193 168 158 153 149 145 141 129 128 140 149 151 159 159 147 128 112 108 110 110 110 112 107 108
234 238 238 233 219 213 213 216 212 212 216 217 216 217 215 212 211 213 208 197 186 184 181 181 184 183 171 160 152 161 178 190 190 181 169 151 138 131 123 117 115 116 117
240 242 240 233 225 222 222 223 222 220 220 219 218 219 218 213 214 214 206 198 194 199 201 199 200 199 197 194 194 198 200 201 198 184 172 159 145 141 138 135 134 128 132
246 245 243 237 231 226 223 225 226 225 225 226 222 218 215 214 214 212 204 197 198 203 207 208 210 208 206 206 210 212 211 214 208 196 180 163 151 151 146 141 142 139 140
Height
1505 1501 1498 1495 1493 1491 1490 1489 1488 1487 1487 1487 1487 1487 1487 1488 1489 1491 1492 1495 1498 1501 1504 1507 1510 1513 1515 1518 1520 1523 1526 1529 1531 1533 1535 1536 1536 1537 1538 1539 1540 1541 1541
1508 1504 1501 1498 1496 1493 1492 1490 1489 1488 1488 1488 1487 1487 1487 1487 1488 1490 1491 1493 1496 1499 1501 1504 1507 1510 1513 1516 1518 1521 1523 1526 1528 1530 1532 1533 1534 1535 1535 1536 1537 1537 1537
1511 1507 1504 1500 1498 1495 1494 1492 1491 1490 1489 1489 1488 1488 1488 1488 1489 1490 1492 1493 1495 1497 1500 1503 1505 1508 1511 1514 1516 1519 1521 1524 1526 1528 1529 1530 1532 1533 1533 1534 1534 1534 1535
1514 1510 1507 1503 1501 1498 1496 1495 1493 1492 1491 1491 1490 1490 1490 1490 1491 1491 1492 1494 1496 1498 1500 1503 1505 1508 1510 1513 1515 1518 1520 1522 1524 1526 1527 1529 1530 1531 1532 1532 1532 1532 1532
1517 1514 1510 1507 1504 1501 1499 1497 1496 1495 1494 1493 1493 1493 1493 1493 1493 1494 1494 1496 1498 1500 1502 1504 1506 1508 1510 1513 1515 1517 1519 1521 1523 1525 1527 1528 1529 1530 1530 1530 1530 1531 1530
1521 1517 1514 1511 1508 1505 1503 1501 1499 1498 1497 1496 1496 1496 1495 1495 1496 1496 1497 1498 1500 1502 1504 1506 1508 1510 1512 1514 1516 1518 1520 1521 1523 1525 1526 1527 1528 1529 1529 1529 1529 1529 1529
1524 1521 1517 1514 1511 1508 1506 1504 1502 1501 1500 1499 1498 1498 1498 1498 1498 1499 1500 1501 1502 1504 1506 1508 1510 1511 1513 1515 1517 1518 1520 1522 1524 1526 1527 1527 1528 1528 1528 1528 1528 1528 1528
1528 1524 1520 1517 1514 1512 1509 1507 1506 1504 1503 1502 1501 1500 1500 1500 1500 1501 1502 1503 1505 1506 1508 1510 1511 1513 1514 1516 1518 1520 1521 1523 1525 1526 1527 1527 1528 1528 1528 1528 1528 1528 1528
1530 1527 1523 1520 1518 1515 1513 1511 1509 1507 1506 1504 1503 1503 1502 1502 1503 1503 1504 1505 1507 1508 1510 1511 1513 1515 1516 1518 1519 1521 1522 1524 1525 1527 1527 1528 1528 1528 1528 1528 1528 1528 1527
1533 1530 1527 1524 1521 1519 1516 1514 1512 1510 1509 1508 1507 1506 1505 1505 1505 1506 1507 1507 1509 1510 1511 1513 1515 1516 1518 1519 1521 1522 1524 1525 1526 1527 1528 1528 1528 1528 1528 1528 1528 1527 1527
1536 1533 1530 1527 1524 1522 1520 1517 1516 1514 1512 1511 1510 1509 1508 1508 1508 1508 1509 1509 1510 1512 1513 1514 1516 1517 1519 1520 1522 1523 1525 1526 1527 1527 1528 1528 1528 1528 1528 1528 1528 1528 1528
1539 1536 1533 1530 1528 1526 1523 1521 1519 1517 1516 1514 1513 1512 1512 1511 1511 1511 1511 1512 1513 1514 1515 1516 1518 1519 1520 1522 1523 1524 1526 1527 1527 1528 1528 1528 1529 1529 1528 1528 1528 1528 1528
1541 1538 1536 1534 1531 1529 1527 1525 1523 1521 1519 1518 1517 1515 1515 1514 1514 1514 1514 1515 1515 1516 1517 1518 1520 1521 1522 1523 1524 1526 1527 1527 1528 1528 1529 1529 1529 1529 1529 1529 1528 1528 1528
1543 1541 1539 1537 1534 1532 1530 1529 1527 1525 1523 1522 1520 1519 1518 1517 1517 1517 1517 1518 1518 1519 1520 1521 1522 1523 1524 1525 1526 1527 1528 1528 1529 1529 1529 1529 1529 1529 1529 1529 1529 1529 1529
1545 1543 1541 1539 1537 1536 1534 1532 1530 1528 1527 1525 1524 1523 1522 1521 1520 1520 1520 1521 1521 1522 1523 1523 1524 1525 1526 1526 1527 1528 1528 1529 1529 1530 1530 1530 1530 1530 1530 1530 1530 1530 1529
1546 1544 1543 1541 1540 1538 1537 1535 1533 1532 1530 1529 1527 1526 1525 1524 1523 1523 1523 1524 1524 1525 1525 1526 1526 1527 1528 1528 1529 1529 1530 1530 1531 1531 1531 1531 1531 1531 1531 1531 1531 1531 1530
1547 1546 1544 1543 1542 1541 1539 1538 1536 1535 1533 1532 1530 1529 1528 1527 1526 1526 1526 1526 1526 1527 1528 1528 1528 1529 1529 1530 1530 1531 1531 1532 1532 1532 1532 1532 1532 1532 1532 1532 1532 1532 1531
1547 1546 1546 1544 1543 1542 1541 1540 1538 1537 1536 1534 1533 1532 1531 1530 1529 1528 1528 1529 1529 1529 1529 1530 1530 1531 1531 1532 1532 1532 1532 1533 1533 1533 1533 1533 1533 1533 1533 1533 1533 1532 1532
1547 1547 1546 1545 1544 1543 1542 1541 1540 1539 1538 1536 1535 1534 1533 1533 1532 1531 1531 1531 1530 1531 1531 1531 1532 1532 1533 1533 1533 1533 1533 1533 1533 1533 1533 1534 1534 1534 1534 1534 1533 1533 1533
1547 1547 1546 1546 1545 1544 1543 1542 1541 1540 1539 1538 1537 1536 1535 1535 1534 1533 1533 1532 1532 1532 1533 1533 1533 1533 1533 1533 1533 1533 1533 1533 1534 1534 1534 1534 1534 1534 1534 1534 1534 1534 1534
1546 1546 1546 1545 1545 1544 1544 1543 1542 1541 1541 1540 1539 1538 1537 1536 1536 1535 1534 1534 1534 1534 1534 1534 1534 1534 1534 1534 1533 1533 1533 1533 1534 1534 1534 1534 1534 1534 1535 1535 1535 1534 1534
1545 1545 1545 1544 1544 1544 1544 1543 1543 1542 1541 1541 1540 1539 1538 1538 1537 1536 1536 1535 1535 1534 1534 1534 1534 1534 1534 1533 1533 1533 1533 1533 1533 1533 1534 1534 1534 1534 1535 1535 1535 1534 1534
1543 1543 1543 1543 1543 1543 1543 1543 1542 1542 1541 1541 1540 1540 1539 1538 1537 1537 1536 1535 1535 1535 1534 1534 1534 1533 1533 1533 1533 1533 1533 1533 1533 1533 1533 1534 1534 1534 1534 1535 1535 1534 1534
1541 1541 1541 1541 1541 1541 1541 1541 1541 1541 1541 1540 1540 1539 1539 1538 1538 1537 1536 1536 1535 1534 1534 1534 1533 1533 1533 1532 1532 1532 1532 1532 1532 1532 1533 1533 1534 1534 1534 1534 1534 1534 1534
1538 1538 1538 1538 1539 1539 1539 1539 1539 1539 1539 1539 1539 1538 1538 1538 1537 1536 1536 1535 1534 1534 1533 1533 1533 1532 1532 1532 1531 1531 1531 1531 1531 1531 1532 1532 1533 1533 1533 1534 1534 1534 1534
1535 1535 1535 1535 1536 1536 1536 1536 1537 1537 1537 1537 1537 1536 1536 1536 1535 1535 1534 1534 1533 1533 1532 1532 1531 1531 1531 1531 1530 1530 1530 1530 1530 1530 1531 1531 1532 1532 1532 1533 1533 1533 1533